Terminal Aerodrome Forecast
Issued by NWS

Home | Current Version | Previous Version | Text Only | Print | Product List | Glossary Off
Versions: 1 2 3 4 5 6 7 8 9 10 11 12 13 14 15 16 17 18 19 20 21 22 23 24 25 26 27 28 29 30 31 32 33 34 35 36

000
FTUS42 KMHX 231100 RRA
TAFOAJ
TAF
KOAJ 231142Z 2312/2412 02004KT 3SM BR OVC003
     FM231600 03003KT 4SM BR OVC005
     FM232200 12005KT 2SM -RA BR OVC007
     FM240900 18007KT 3/4SM -DZ BR OVC004
      AMD LTD TO CLD VIS AND WIND=

USA.gov is the U.S. government's official web portal to all federal, state and local government web resources and services.